Location: Saint-Palais-sur-Mer
(45.6429°N, 1.0859°W)
Time: 20:22:53
(UTC+01:00)

S-56A Canister/Altair - Visible Passes

Search period start: 08 February 2026 00:00
Search period end: 18 February 2026 00:00
Orbit: 632 x 2485 km, 38.9° (Epoch: 8 February)

Date Brightness Start Highest point End Pass type
(mag) Time Alt. Az. Time Alt. Az. Time Alt. Az.
8 Feb 10.2 03:33:46 36° ESE 03:33:46 36° ESE 03:41:55 10° E visible
8 Feb 9.5 05:31:00 46° SW 05:34:47 64° S 05:48:50 10° E visible
8 Feb 10.2 07:28:29 10° W 07:40:16 56° SSW 07:54:42 10° SE visible
9 Feb 10.7 03:00:40 25° ESE 03:00:40 25° ESE 03:05:51 10° E visible
9 Feb 9.3 04:57:54 58° SSW 04:59:19 62° S 05:12:51 10° E visible
9 Feb 10.0 06:55:09 17° W 07:04:38 58° SSW 07:19:00 10° ESE visible
10 Feb 11.1 02:27:34 16° E 02:27:34 16° E 02:29:47 10° E visible
10 Feb 9.5 04:24:48 58° SSE 04:24:48 58° SSE 04:36:50 10° E visible
10 Feb 9.9 06:22:03 27° WSW 06:29:03 59° S 06:43:14 10° ESE visible
11 Feb 9.9 03:51:42 45° ESE 03:51:42 45° ESE 04:00:50 10° E visible
11 Feb 9.6 05:48:57 39° WSW 05:53:32 60° S 06:07:22 10° ESE visible
12 Feb 10.4 03:18:37 31° ESE 03:18:37 31° ESE 03:24:50 10° E visible
12 Feb 9.3 05:15:52 53° SW 05:18:05 61° S 05:31:28 10° ESE visible
12 Feb 10.3 07:13:06 12° W 07:23:10 44° SSW 07:36:35 10° SE visible
13 Feb 10.8 02:45:33 20° E 02:45:33 20° E 02:48:52 10° E visible
13 Feb 9.3 04:42:48 60° S 04:42:48 60° S 04:55:31 10° ESE visible
13 Feb 10.1 06:40:02 20° W 06:47:41 46° SSW 07:01:00 10° SE visible
14 Feb 11.2 02:12:29 11° E 02:12:29 11° E 02:12:56 10° E visible
14 Feb 9.6 04:09:45 51° SE 04:09:45 51° SE 04:19:34 10° ESE visible
14 Feb 9.8 06:07:00 30° WSW 06:12:14 49° SSW 06:25:20 10° SE visible
15 Feb 10.1 03:36:44 36° ESE 03:36:44 36° ESE 03:43:37 10° ESE visible
15 Feb 9.4 05:33:59 42° SW 05:36:50 50° SSW 05:49:35 10° SE visible
15 Feb 10.6 07:32:19 10° W 07:41:30 29° SW 07:52:46 10° SSE visible
16 Feb 10.6 03:03:46 23° ESE 03:03:46 23° ESE 03:07:42 10° E visible
16 Feb 9.3 05:01:01 51° SSW 05:01:30 52° SSW 05:13:47 10° ESE visible
16 Feb 10.4 06:58:16 14° W 07:06:08 31° SSW 07:17:32 10° SSE visible
17 Feb 11.1 02:30:49 13° E 02:30:49 13° E 02:31:50 10° E visible
17 Feb 9.5 04:28:05 48° SSE 04:28:05 48° SSE 04:37:57 10° ESE visible
17 Feb 10.1 06:25:20 22° WSW 06:30:47 33° SSW 06:42:10 10° SSE visible
